EW6584 Weather Reports


Display with metric or nautical units.
time (UTC)temp
F
wind
direction
speed
MPH
gust
MPH
rain 1hr
in
rain 24hr
in
rain mn
in
humidity
%
barometer
mb
20260906163057 60 56 0.0 3.0 0.00 0.00 0.00 76 1016.1
20260906163002 60 56 0.0 3.0 0.00 0.00 0.00 76 1016.1
20260906161535 60 57 1.0 3.0 0.00 0.00 0.00 74 1016.3
20260906160007 61 54 2.0 4.0 0.00 0.00 0.00 71 1016.1
20260906154543 60 50 1.0 3.0 0.00 0.00 0.00 74 1016.0
20260906153057 59 50 0.0 1.0 0.00 0.00 0.00 77 1015.8
20260906151533 57 50 1.0 3.0 0.00 0.00 0.00 82 1015.8
20260906150014 57 45 2.0 3.0 0.00 0.00 0.00 83 1015.6
20260906144519 56 45 0.0 4.0 0.00 0.00 0.00 88 1015.7
20260906143055 55 45 1.0 3.0 0.00 0.00 0.00 90 1015.7
20260906141539 54 45 0.0 1.0 0.00 0.00 0.00 92 1015.7
20260906140044 53 45 0.0 3.0 0.00 0.00 0.00 92 1015.7
20260906134515 53 45 0.0 5.0 0.00 0.00 0.00 93 1015.5
20260906133109 53 15 0.0 3.0 0.00 0.00 0.00 94 1015.5
20260906131536 53 15 1.0 3.0 0.00 0.00 0.00 94 1015.4
20260906130011 53 13 0.0 2.0 0.00 0.00 0.00 94 1015.4
20260906124549 53 13 0.0 1.0 0.00 0.00 0.00 94 1015.5
20260906123032 53 13 0.0 0.0 0.00 0.00 0.00 93 1015.7
20260906121515 54 13 0.0 0.0 0.00 0.00 0.00 94 1015.6
20260906120027 54 14 0.0 0.0 0.00 0.00 0.00 93 1015.6
20260906114537 54 14 0.0 1.0 0.00 0.00 0.00 93 1015.5
20260906113033 54 13 0.0 1.0 0.00 0.00 0.00 92 1015.5
20260906111502 54 13 0.0 0.0 0.00 0.00 0.00 92 1015.9
20260906110008 54 13 0.0 0.0 0.00 0.00 0.00 91 1015.7
20260906104524 55 13 0.0 1.0 0.00 0.00 0.00 91 1015.8
20260906103010 55 13 0.0 1.0 0.00 0.00 0.00 91 1015.5
20260906101547 55 13 0.0 1.0 0.00 0.00 0.00 90 1015.6
20260906100056 55 14 0.0 1.0 0.00 0.00 0.00 90 1015.6
20260906094528 55 13 1.0 2.0 0.00 0.00 0.00 90 1015.7
20260906093014 55 13 0.0 2.0 0.00 0.00 0.00 90 1015.6
20260906091542 55 13 0.0 2.0 0.00 0.00 0.00 89 1015.6
20260906090022 56 13 0.0 2.0 0.00 0.00 0.00 88 1015.8
20260906084535 56 12 1.0 3.0 0.00 0.00 0.00 88 1015.7
20260906083043 56 11 0.0 2.0 0.00 0.00 0.00 87 1015.6
20260906081528 56 11 0.0 2.0 0.00 0.00 0.00 87 1015.7
20260906080036 56 11 0.0 2.0 0.00 0.00 0.00 86 1015.5
20260906074531 56 11 1.0 2.0 0.00 0.00 0.00 86 1015.6
20260906073029 56 11 0.0 2.0 0.00 0.00 0.00 85 1015.6
20260906071510 57 11 0.0 2.0 0.00 0.00 0.00 84 1015.8
20260906070050 57 11 0.0 1.0 0.00 0.00 0.00 83 1016.0
20260906064529 57 11 1.0 2.0 0.00 0.00 0.00 82 1016.0
20260906063013 58 11 0.0 1.0 0.00 0.00 0.00 81 1015.9
20260906061525 58 11 0.0 2.0 0.00 0.00 0.00 80 1016.0
20260906060006 58 11 1.0 2.0 0.00 0.00 0.00 78 1016.0
20260906054545 59 11 1.0 3.0 0.00 0.00 0.00 78 1016.0
20260906053025 59 10 0.0 2.0 0.00 0.00 0.00 77 1016.1
20260906051540 59 10 1.0 2.0 0.00 0.00 0.00 74 1016.3
20260906050017 60 10 0.0 2.0 0.00 0.00 0.00 72 1016.2
20260906044537 60 10 0.0 2.0 0.00 0.00 0.00 71 1016.3
20260906043042 60 10 1.0 3.0 0.00 0.00 0.00 70 1016.3
20260906041557 60 10 0.0 0.0 0.00 0.00 0.00 69 1016.4
20260906040007 61 10 0.0 0.0 0.00 0.00 0.00 68 1016.4
20260906034521 61 10 0.0 0.0 0.00 0.00 0.00 67 1016.3
20260906033007 62 10 0.0 2.0 0.00 0.00 0.00 65 1016.2
20260906031547 63 10 0.0 1.0 0.00 0.00 0.00 64 1016.1
20260906030032 64 10 0.0 0.0 0.00 0.00 0.00 62 1016.1
20260906024542 65 10 0.0 0.0 0.00 0.00 0.00 60 1016.1
20260906023102 66 10 0.0 2.0 0.00 0.00 0.00 58 1016.1
20260906021600 67 10 0.0 2.0 0.00 0.00 0.00 57 1016.0
20260906021502 67 10 0.0 2.0 0.00 0.00 0.00 57 1015.9
20260906020018 68 11 0.0 4.0 0.00 0.00 0.00 55 1015.9
20260906014540 69 18 1.0 4.0 0.00 0.00 0.00 53 1015.9
20260906013009 70 18 1.0 5.0 0.00 0.00 0.00 52 1015.9
20260906011526 71 336 1.0 4.0 0.00 0.00 0.00 49 1015.8
20260906010032 70 328 1.0 5.0 0.00 0.00 0.00 51 1015.8
20260906004526 71 50 2.0 6.0 0.00 0.00 0.00 47 1015.7
20260906003041 73 328 2.0 5.0 0.00 0.00 0.00 46 1015.7
20260906001528 72 337 2.0 4.0 0.00 0.00 0.00 48 1015.6
20260906000034 72 339 2.0 6.0 0.00 0.00 0.00 50 1015.7
20260905234544 71 97 1.0 3.0 0.00 0.00 0.00 51 1015.8
20260905233026 71 145 3.0 5.0 0.00 0.00 0.00 49 1015.7
20260905231542 71 183 4.0 6.0 0.00 0.00 0.00 49 1015.8
20260905230020 70 176 3.0 10.0 0.00 0.00 0.00 48 1016.0
20260905224504 69 77 5.0 10.0 0.00 0.00 0.00 49 1016.1
20260905223042 70 187 1.0 6.0 0.00 0.00 0.00 52 1016.2
20260905221552 69 100 2.0 8.0 0.00 0.00 0.00 54 1016.3
20260905220027 68 77 2.0 5.0 0.00 0.00 0.00 57 1016.7
20260905214534 67 99 0.0 3.0 0.00 0.00 0.00 63 1016.7
20260905213052 65 77 1.0 4.0 0.00 0.00 0.00 66 1016.9
20260905211559 65 77 2.0 6.0 0.00 0.00 0.00 68 1017.1
20260905210038 64 143 0.0 4.0 0.00 0.00 0.00 71 1017.1
20260905204525 63 101 0.0 4.0 0.00 0.00 0.00 77 1017.3
20260905203006 63 81 1.0 6.0 0.00 0.00 0.00 75 1017.3
20260905201555 63 204 1.0 3.0 0.00 0.00 0.00 73 1017.3
20260905200028 62 209 2.0 4.0 0.00 0.00 0.00 75 1017.4
20260905194538 62 214 0.0 4.0 0.00 0.00 0.00 76 1017.4
20260905193047 62 223 1.0 4.0 0.00 0.00 0.00 76 1017.5
20260905191531 62 223 0.0 4.0 0.00 0.00 0.00 76 1017.6
20260905190045 61 223 2.0 5.0 0.00 0.00 0.00 76 1017.6
20260905184601 62 159 1.0 5.0 0.00 0.00 0.00 76 1017.8
20260905183048 62 109 2.0 6.0 0.00 0.00 0.00 75 1017.9
20260905181517 61 146 0.0 6.0 0.00 0.00 0.00 78 1018.1
20260905180001 60 163 2.0 6.0 0.00 0.00 0.00 80 1018.0
20260905174539 60 177 1.0 5.0 0.00 0.00 0.00 80 1017.9
20260905173058 59 169 1.0 4.0 0.00 0.00 0.00 84 1017.8
20260905171534 58 195 1.0 4.0 0.00 0.00 0.00 84 1017.8
20260905170012 58 197 2.0 6.0 0.00 0.00 0.00 83 1017.8
20260905164521 58 161 1.0 5.0 0.00 0.00 0.00 84 1017.7